Xinyun

operational
NORAD ID: 43012 Int'l Des: 2017-072 Owner: FUDAN Country: CN
LEORETROGRADESSO

About Xinyun

Description loading...

Live Position

Loading 3D Globe...

Upcoming Passes

Altitude History

Altitude vs Time

uPlot chart will show altitude changes over time

Two-Line Element Set

1 43012U 17072C 26049.85509596 .00000582 00000-0 12331-3 0 9993
2 43012 98.5705 154.0611 0123246 155.9813 204.7202 14.58664159439387
Epoch: Feb 18, 2026 • Age: 11 hours

Current Status

Altitude 613.9 km
Velocity 7.60 km/s
Sub-Earth Point 14.92°N, 80.31°E
Launch Date Nov 14, 2017
Age 8.2 years
Type other

Technical Details

Classification Payload
Mass 1.00 kg
Dry Mass 1.00 kg
Total Mass 1001.00 kg
Length 0.20 m
Diameter 0.20 m
Span 0.20 m
Shape Box
Manufacturer FUDAN
Bus Type Xinyun
Phase Status Attached in Orbit
Owner/State FUDAN/CN

Large Constellations

Loading constellations...